• In Moldova, Republic
  • List of Countries
  • For 7 days
  • Water Temperature
  • Satellite Maps
  • Weather Map
  • Weather Widgets
  • user-avatar
    Login

    Hourly Weather Perth

    Today, 29 April, Saturday

    Time Temperature Precipitation Wind Pressure Humidity
    00:00 +16°C° 0 mm 2 mps 766 mmHg 47%
    01:00 +16°C° 0 mm 2 mps 766 mmHg 46%
    02:00 +16°C° 0 mm 2 mps 766 mmHg 46%
    03:00 +15°C° 0 mm 2 mps 766 mmHg 47%
    04:00 +14°C° 0 mm 3 mps 766 mmHg 49%
    05:00 +14°C° 0 mm 3 mps 766 mmHg 51%
    06:00 +16°C° 0 mm 3 mps 766 mmHg 48%
    07:00 +16°C° 0 mm 3 mps 766 mmHg 45%
    08:00 +17°C° 0 mm 3 mps 766 mmHg 43%
    09:00 +20°C° 0 mm 2 mps 766 mmHg 36%
    10:00 +24°C° 0 mm 2 mps 765 mmHg 30%
    11:00 +27°C° 0 mm 2 mps 765 mmHg 24%
    12:00 +28°C° 0 mm 2 mps 765 mmHg 22%
    13:00 +29°C° 0 mm 2 mps 764 mmHg 20%
    14:00 +30°C° 0 mm 2 mps 764 mmHg 19%
    15:00 +29°C° 0 mm 2 mps 763 mmHg 23%
    16:00 +27°C° 0 mm 3 mps 763 mmHg 26%
    17:00 +25°C° 0 mm 3 mps 763 mmHg 30%
    18:00 +22°C° 0 mm 3 mps 763 mmHg 37%
    19:00 +19°C° 0 mm 3 mps 764 mmHg 45%
    20:00 +16°C° 0 mm 3 mps 764 mmHg 52%
    21:00 +16°C° 0 mm 2 mps 764 mmHg 52%
    22:00 +16°C° 0 mm 2 mps 764 mmHg 53%
    23:00 +16°C° 0 mm 2 mps 764 mmHg 53%

    Tomorrow, 30 April, Sunday

    Time Temperature Precipitation Wind Pressure Humidity
    00:00 +15°C° 0 mm 2 mps 764 mmHg 55%
    01:00 +15°C° 0 mm 2 mps 764 mmHg 56%
    02:00 +14°C° 0 mm 2 mps 764 mmHg 58%
    03:00 +13°C° 0 mm 2 mps 764 mmHg 61%
    04:00 +13°C° 0 mm 2 mps 763 mmHg 64%
    05:00 +12°C° 0 mm 1 mps 763 mmHg 67%
    06:00 +14°C° 0 mm 2 mps 763 mmHg 62%
    07:00 +16°C° 0 mm 2 mps 764 mmHg 58%
    08:00 +17°C° 0 mm 2 mps 764 mmHg 53%
    09:00 +20°C° 0 mm 2 mps 764 mmHg 50%
    10:00 +22°C° 0 mm 3 mps 764 mmHg 47%
    11:00 +25°C° 0 mm 3 mps 764 mmHg 44%
    12:00 +26°C° 0 mm 3 mps 764 mmHg 43%
    13:00 +27°C° 0 mm 3 mps 763 mmHg 42%
    14:00 +28°C° 0 mm 3 mps 763 mmHg 41%
    15:00 +27°C° 0 mm 4 mps 763 mmHg 47%
    16:00 +25°C° 0 mm 4 mps 763 mmHg 53%
    17:00 +23°C° 0 mm 4 mps 763 mmHg 59%
    18:00 +22°C° 0 mm 4 mps 764 mmHg 69%
    19:00 +20°C° 0 mm 4 mps 764 mmHg 78%
    20:00 +18°C° 0 mm 4 mps 765 mmHg 88%
    21:00 +18°C° 0 mm 4 mps 765 mmHg 89%
    22:00 +17°C° 0 mm 4 mps 765 mmHg 90%
    23:00 +16°C° 0 mm 3 mps 766 mmHg 91%

    Day after tomorrow, 1 May, Monday

    Time Temperature Precipitation Wind Pressure Humidity
    00:00 +16°C° 0 mm 3 mps 766 mmHg 91%
    01:00 +16°C° 0 mm 3 mps 766 mmHg 91%
    02:00 +14°C° 0 mm 3 mps 766 mmHg 91%
    03:00 +14°C° 0 mm 3 mps 766 mmHg 91%
    04:00 +14°C° 0 mm 3 mps 766 mmHg 90%
    05:00 +14°C° 0 mm 3 mps 766 mmHg 89%
    06:00 +14°C° 0 mm 4 mps 766 mmHg 85%
    07:00 +15°C° 0 mm 4 mps 766 mmHg 82%
    08:00 +15°C° 0 mm 4 mps 766 mmHg 78%
    09:00 +18°C° 0 mm 4 mps 766 mmHg 70%
    10:00 +20°C° 0 mm 3 mps 766 mmHg 62%
    11:00 +22°C° 0 mm 3 mps 766 mmHg 53%
    12:00 +25°C° 0 mm 3 mps 766 mmHg 49%
    13:00 +26°C° 0 mm 3 mps 765 mmHg 44%
    14:00 +28°C° 0 mm 2 mps 764 mmHg 39%
    15:00 +27°C° 0 mm 3 mps 764 mmHg 42%
    16:00 +26°C° 0 mm 3 mps 764 mmHg 45%
    17:00 +25°C° 0 mm 3 mps 764 mmHg 48%
    18:00 +22°C° 0 mm 3 mps 765 mmHg 53%
    19:00 +21°C° 0 mm 4 mps 765 mmHg 58%
    20:00 +19°C° 0 mm 4 mps 766 mmHg 63%
    21:00 +19°C° 0 mm 4 mps 766 mmHg 64%
    22:00 +18°C° 0 mm 4 mps 766 mmHg 65%
    23:00 +17°C° 0 mm 5 mps 766 mmHg 66%

    2 May, Tuesday

    Time Temperature Precipitation Wind Pressure Humidity
    00:00 +16°C° 0 mm 5 mps 766 mmHg 67%
    01:00 +16°C° 0 mm 5 mps 766 mmHg 69%
    02:00 +15°C° 0 mm 5 mps 766 mmHg 71%
    03:00 +15°C° 0 mm 5 mps 766 mmHg 72%
    04:00 +14°C° 0 mm 4 mps 766 mmHg 74%
    05:00 +14°C° 0 mm 4 mps 766 mmHg 75%
    06:00 +14°C° 0 mm 4 mps 766 mmHg 73%
    07:00 +14°C° 0 mm 4 mps 766 mmHg 71%
    08:00 +15°C° 0 mm 5 mps 767 mmHg 69%
    09:00 +18°C° 0 mm 4 mps 766 mmHg 60%
    10:00 +21°C° 0 mm 3 mps 766 mmHg 51%
    11:00 +24°C° 0 mm 3 mps 766 mmHg 43%
    12:00 +26°C° 0 mm 2 mps 765 mmHg 38%
    13:00 +27°C° 0 mm 2 mps 765 mmHg 34%
    14:00 +29°C° 0 mm 1 mps 764 mmHg 29%
    15:00 +28°C° 0 mm 2 mps 764 mmHg 33%
    16:00 +26°C° 0 mm 2 mps 764 mmHg 37%
    17:00 +25°C° 0 mm 2 mps 764 mmHg 41%
    18:00 +23°C° 0 mm 2 mps 764 mmHg 44%
    19:00 +21°C° 0 mm 2 mps 764 mmHg 47%
    20:00 +19°C° 0 mm 3 mps 765 mmHg 49%
    21:00 +19°C° 0 mm 3 mps 765 mmHg 49%
    22:00 +19°C° 0 mm 3 mps 764 mmHg 50%
    23:00 +19°C° 0 mm 4 mps 764 mmHg 50%

    3 May, Wednesday

    Time Temperature Precipitation Wind Pressure Humidity
    00:00 +19°C° 0 mm 4 mps 764 mmHg 50%
    01:00 +18°C° 0 mm 4 mps 764 mmHg 50%
    02:00 +18°C° 0 mm 4 mps 764 mmHg 50%
    03:00 +18°C° 0 mm 4 mps 763 mmHg 51%
    04:00 +18°C° 0 mm 4 mps 763 mmHg 51%
    05:00 +17°C° 0 mm 5 mps 763 mmHg 51%
    06:00 +17°C° 0 mm 5 mps 763 mmHg 50%
    07:00 +17°C° 0 mm 5 mps 763 mmHg 49%
    08:00 +19°C° 0 mm 5 mps 764 mmHg 48%
    09:00 +21°C° 0 mm 5 mps 763 mmHg 42%
    10:00 +25°C° 0 mm 5 mps 763 mmHg 37%
    11:00 +27°C° 0 mm 5 mps 763 mmHg 31%
    12:00 +28°C° 0 mm 4 mps 762 mmHg 28%
    13:00 +30°C° 0 mm 4 mps 761 mmHg 26%
    14:00 +32°C° 0 mm 4 mps 760 mmHg 23%
    15:00 +29°C° 0 mm 3 mps 760 mmHg 27%
    16:00 +28°C° 0 mm 3 mps 760 mmHg 31%
    17:00 +27°C° 0 mm 3 mps 760 mmHg 35%
    18:00 +24°C° 0 mm 3 mps 760 mmHg 45%
    19:00 +21°C° 0 mm 3 mps 761 mmHg 56%
    20:00 +18°C° 0 mm 2 mps 761 mmHg 67%
    21:00 +18°C° 0 mm 2 mps 761 mmHg 67%
    22:00 +18°C° 0 mm 3 mps 760 mmHg 67%
    23:00 +18°C° 0 mm 3 mps 760 mmHg 67%

    4 May, Thursday

    Time Temperature Precipitation Wind Pressure Humidity
    00:00 +18°C° 0 mm 3 mps 760 mmHg 70%
    01:00 +18°C° 0 mm 3 mps 760 mmHg 74%
    02:00 +17°C° 0 mm 3 mps 760 mmHg 78%
    03:00 +18°C° 0 mm 3 mps 760 mmHg 82%
    04:00 +18°C° 0 mm 3 mps 760 mmHg 86%
    05:00 +19°C° 0 mm 3 mps 760 mmHg 91%
    06:00 +19°C° 0.1 mm 3 mps 760 mmHg 88%
    07:00 +19°C° 0.1 mm 3 mps 761 mmHg 86%
    08:00 +19°C° 0.1 mm 3 mps 761 mmHg 84%
    09:00 +20°C° 0.3 mm 3 mps 761 mmHg 81%
    10:00 +20°C° 0.3 mm 4 mps 761 mmHg 79%
    11:00 +21°C° 0.3 mm 4 mps 761 mmHg 76%
    12:00 +21°C° 0.2 mm 4 mps 761 mmHg 76%
    13:00 +21°C° 0.2 mm 4 mps 761 mmHg 75%
    14:00 +20°C° 0.2 mm 4 mps 761 mmHg 74%
    15:00 +20°C° 0 mm 4 mps 761 mmHg 72%
    16:00 +19°C° 0 mm 4 mps 762 mmHg 70%
    17:00 +19°C° 0 mm 4 mps 762 mmHg 68%
    18:00 +17°C° 0 mm 4 mps 763 mmHg 73%
    19:00 +16°C° 0 mm 3 mps 763 mmHg 77%
    20:00 +13°C° 0 mm 3 mps 764 mmHg 82%
    21:00 +12°C° 0 mm 3 mps 764 mmHg 82%
    22:00 +12°C° 0 mm 3 mps 764 mmHg 83%
    23:00 +11°C° 0 mm 3 mps 765 mmHg 84%
    Show more